Regional Weather Roundup
Issued by NWS Cleveland, OH

Home | Current Version | Previous Version | Text Only | Print | Product List | Glossary Off
Versions: 1 2 3 4 5 6 7 8 9 10 11 12 13 14 15 16 17 18 19 20 21 22 23 24 25 26 27 28 29 30 31 32 33 34 35 36 37 38 39 40 41 42 43 44 45 46 47 48 49 50

395
ASUS41 KCLE 260212
RWRCLE
OHIO REGIONAL WEATHER ROUNDUP
NATIONAL WEATHER SERVICE WILMINGTON, OH
1000 PM EDT TUE APR 25 2017

NOTE: "FAIR" INDICATES FEW OR NO CLOUDS BELOW 12,000 FEET WITH NO
SIGNIFICANT WEATHER AND/OR OBSTRUCTIONS TO VISIBILITY.

OHZ001>008-015>018-024>027-034-035-043-044-260300-
   NORTHWEST OHIO

CITY           SKY/WX    TMP DP  RH WIND       PRES   REMARKS
DEFIANCE       FAIR      62  53  72 E10       29.67R
FINDLAY        FAIR      67  50  54 SE8       29.68R
TOLEDO EXPRESS FAIR      56  52  86 E8        29.69S
TOLEDO EXEC    FAIR      55  52  89 E7        29.71R
LIMA           FAIR      66  53  63 SE9       29.69R
$$

OHZ009>014-019>023-028>033-038-089-260300-
   NORTHEAST OHIO

CITY           SKY/WX    TMP DP  RH WIND       PRES   REMARKS
CLE-HOPKINS    MOCLDY    66  53  63 SE14      29.77S
CLE-LAKEFRONT  FAIR      65  52  62 SE21G28   29.74S
CUY CO. ARPT   PTCLDY    64  55  72 S14       29.78R
LORAIN-ELYRIA  FAIR      63  52  67 SE9       29.75S
ASHTABULA      CLOUDY    63  54  72 SE10      29.81S
AKRON-CANTON   CLOUDY    62  53  72 SE14      29.79R
WOOSTER        FAIR      60  53  77 SE10      29.77S
MANSFIELD      FAIR      62  54  74 E12       29.74F
YOUNGSTOWN     MOCLDY    59  53  80 SE12      29.81R
$$

OHZ042-051>053-060>062-070>072-077>081-260300-
  SOUTHWEST OHIO

CITY           SKY/WX    TMP DP  RH WIND       PRES   REMARKS
CINC-COVINGTON FAIR      64  57  78 S7        29.70R
CINC-LUNKEN    FAIR      64  60  87 SE3       29.70R
HAMILTON       MOCLDY    64  58  80 CALM      29.69R
DAYTON         FAIR      64  54  69 SE8       29.70R
WRIGHT-PAT AFB FAIR      68  55  64 SE7       29.69R
DAYTON GENERAL FAIR      67  55  65 SE6       29.69R
WILMINGTON     FAIR      64  57  78 SE6       29.71R
$$

OHZ036-037-039>041-045>050-054>059-063>069-073>076-082>088-260300-
  CENTRAL AND SOUTHEAST OHIO

CITY           SKY/WX    TMP DP  RH WIND       PRES   REMARKS
COLUMBUS       FAIR      67  54  63 E8        29.72R
OSU AIRPORT    FAIR      66  55  67 SE7       29.72R
BOLTON FIELD   FAIR      65  55  69 SE6       29.73R
RICKENBACK AFB FAIR      64  55  73 E7        29.72R
NEWARK         FAIR      63  52  67 E3        29.73S
MARION         FAIR      65  53  65 SE9       29.73R
LANCASTER      FAIR      63  54  72 SE7       29.73S
ZANESVILLE     FAIR      63  53  70 E6        29.75R
NEW PHILLY     CLOUDY    62  55  77 SE9       29.78R
$$




USA.gov is the U.S. government's official web portal to all federal, state and local government web resources and services.